TIME,DELAY(SENSOR),PRES,OXYGEN,RAWTEMP,T(OPTODE),TCPHASE,FLUOR,BETA(BETA700),BETA(BETA412),BETA(BETA440),CDOM,C(CSC),ED(ED412.40),ED(ED444.00),ED(ED489.70),ED(ED554.30),LU(LU411.80),LU(LU443.40),LU(LU489.60),LU(LU554.10),COMP,TILTX,TILTY,CHECK
1369713594,5809,796.0599975585938000,41.1305885314941400,653.9431762695312000,4.8271708488464355,54.7546081542968750,53,99,84,79,80,14871,2147754139,2147425984,2148009316,2147873965,2147641572,2147055040,2148253485,2147194093,2395,4,13,55752
1369717190,5808,850.0000000000000000,43.5697212219238300,656.7913818359375000,4.7335491180419920,54.4292411804199200,52,98,88,79,79,14846,2147754349,2147427547,2148009792,2147877248,2147640182,2147055250,2148256539,2147196781,3581,4,13,44291
1369720790,5811,851.6799926757812000,43.4625282287597660,656.5178222656250000,4.7425441741943360,54.4427299499511700,52,99,88,79,79,14864,2147755986,2147426514,2148007552,2147873152,2147640000,2147050395,2148257764,2147194870,103,4,14,42704
1369724390,5812,874.2299804687500000,46.1208992004394500,661.4672851562500000,4.5796551704406740,54.1130714416503900,53,130,86,78,79,14871,2147753947,2147424868,2148010203,2147875044,2147642596,2147054134,2148255277,2147194715,11,4,13,1556
1369727990,5810,866.1599731445312000,47.1449508666992200,663.4351806640625000,4.5148119926452640,53.9884681701660160,52,98,87,79,80,14874,2147756937,2147428964,2148011254,2147875666,2147639259,2147059254,2148259291,2147196013,642,4,13,21019
1369731590,5809,869.6599731445312000,47.4912185668945300,664.5471191406250000,4.4781589508056640,53.9570503234863300,51,99,84,78,79,14869,2147749732,2147425865,2148010011,2147875995,2147640667,2147055149,2148254893,2147195794,3545,4,13,51085
1369735190,5806,890.4299926757812000,47.0543708801269500,668.3956909179688000,4.3511791229248050,54.0601997375488300,53,97,84,79,80,14871,2147758720,2147423936,2148011931,2147876324,2147642569,2147056877,2148255369,2147198866,3289,4,13,58848
1369738790,5808,897.4299926757812000,47.1200103759765600,668.6367797851562000,4.3432159423828125,54.0609092712402340,52,106,85,79,79,14870,2147758272,2147421248,2148009261,2147875392,2147640365,2147054226,2148263698,2147196068,448,4,13,2030
1369742390,5807,902.5300292968750000,46.8786010742187500,668.0906982421875000,4.3612480163574220,54.0865516662597660,53,101,87,79,79,14871,2147758610,2147423798,2148006381,2147875026,2147639872,2147053888,2148257270,2147197577,3510,4,13,33025
1369745990,5810,930.4199829101562000,47.9456596374511700,669.4929809570312000,4.3149452209472660,53.9486618041992200,52,99,86,78,80,14868,2147755840,2147421120,2148006564,2147877266,2147643062,2147048274,2148257298,2147199241,3588,4,13,63155
1369749590,5808,928.5200195312500000,47.5688514709472660,669.2857055664062000,4.3217911720275880,54.0023002624511700,53,97,82,79,80,14870,2147756114,2147423890,2148007661,2147878162,2147640402,2147053723,2148264009,2147196525,180,4,13,37346
1369753190,5809,932.9400024414062000,47.4963188171386700,669.8049926757812000,4.3046398162841800,54.0194511413574200,53,99,86,78,81,14868,2147756013,2147424429,2148008118,2147873782,2147644013,2147058688,2148256237,2147196992,262,4,13,45755
1369756790,5810,966.4400024414062000,47.6546096801757800,671.6409301757812000,4.2439789772033690,54.0199813842773440,52,100,86,79,79,14871,2147755318,2147426898,2148009115,2147874770,2147641819,2147051894,2148257581,2147198363,47,4,13,53672
1369760390,5811,967.8699951171875000,47.5818099975585940,670.7963867187500000,4.2718830108642580,54.0193595886230500,52,99,84,79,80,14868,2147758427,2147426450,2148009654,2147875145,2147642038,2147056411,2148259785,2147200091,3415,4,13,61311
1369763990,5805,965.1900024414062000,47.4078903198242200,671.0922241210938000,4.2621140480041500,54.0501289367675800,52,100,87,77,79,14868,2147755245,2147424109,2148009280,2147876745,2147642002,2147047542,2148257819,2147200384,41,4,13,24992
1369767590,5808,981.5000000000000000,48.7253608703613300,673.9816284179688000,4.1665821075439450,53.8936805725097660,52,98,88,79,79,14869,2147754157,2147426276,2148012854,2147875062,2147639908,2147052562,2148260480,2147194587,587,4,13,19044
1369771190,5808,985.3499755859375000,49.1897583007812500,674.5416870117188000,4.1480498313903810,53.8396492004394500,53,104,87,79,80,14861,2147757796,2147424841,2148012434,2147873947,2147641810,2147050660,2148260845,2147193718,99,4,13,1129
1369774790,5806,975.9400024414062000,49.8665695190429700,675.7150268554688000,4.1092219352722170,53.7637290954589840,52,99,88,79,79,14867,2147755483,2147424301,2148011776,2147875858,2147641508,2147050276,2148260864,2147194797,835,4,13,35403
1369778390,5806,979.4299926757812000,49.9335899353027340,675.5805053710938000,4.1136760711669920,53.7510414123535160,51,98,84,77,80,14865,2147754678,2147425892,2148009545,2147875300,2147644397,2147051803,2148258285,2147194925,3433,4,13,21015
1369781990,5811,982.5900268554688000,49.9066009521484400,675.8969726562500000,4.1032009124755860,53.7599716186523440,53,100,87,80,80,14863,2147755355,2147424411,2148010797,2147874752,2147641289,2147049554,2148260964,2147199222,3444,4,13,39302
1369785590,5808,979.2500000000000000,50.6072692871093750,677.2069702148438000,4.0598278045654300,53.6750984191894500,52,95,85,78,81,14863,2147754843,2147424274,2148010541,2147876041,2147640960,2147051657,2148262299,2147199707,3551,4,13,60587
1369789190,5808,987.3800048828125000,50.4581794738769500,676.6248779296875000,4.0791020393371580,53.6889610290527340,53,100,88,79,80,14844,2147752484,2147425142,2148010112,2147876425,2147644297,2147049334,2148262628,2147194212,2,4,13,39160
1369792790,5809,986.2899780273438000,49.9005012512207000,676.3416748046875000,4.0884799957275390,53.7639083862304700,52,98,88,79,80,14863,2147756397,2147424987,2148011675,2147877558,2147643931,2147049600,2148256704,2147194194,3162,4,13,63774
1369796390,5808,982.4000244140625000,50.1662101745605500,676.6915893554688000,4.0768952369689940,53.7314682006835940,52,98,88,78,80,14856,2147758729,2147424411,2148010139,2147875364,2147643392,2147048310,2148260827,2147196224,127,4,13,30644
1369799990,5805,999.1500244140625000,50.3782691955566400,676.2329711914062000,4.0920748710632320,53.6986808776855500,52,100,85,78,81,14861,2147758345,2147426038,2148011190,2147874550,2147642020,2147052297,2148259465,2147194038,177,4,13,34004
1369803590,5807,997.0900268554688000,49.5925712585449200,674.3353881835938000,4.1548771858215330,53.7798881530761700,52,98,89,80,80,14864,2147755894,2147426560,2148011328,2147874688,2147640987,2147053686,2148259785,2147192402,3519,4,13,11622
1369807190,5808,997.4400024414062000,49.2805709838867200,674.7540893554688000,4.1410241127014160,53.8280906677246100,52,99,87,79,79,14858,2147754898,2147423963,2148011190,2147876379,2147643401,2147045988,2148259876,2147194669,194,4,13,44122
1369810790,5810,993.9699707031250000,49.0536499023437500,674.4411010742188000,4.1513791084289550,53.8547401428222660,52,98,84,79,80,14863,2147754989,2147427337,2148008146,2147876836,2147642038,2147047652,2148262738,2147195227,450,4,13,37487
1369814390,5807,989.2800292968750000,49.3894386291503900,674.9160156250000000,4.1356658935546875,53.8159713745117200,52,99,87,79,80,14861,2147754404,2147424301,2148008713,2147874889,2147642770,2147053074,2148264758,2147194870,521,4,13,8783
1369817990,5809,989.3300170898438000,49.5523109436035160,675.8709106445312000,4.1040630340576170,53.8043212890625000,52,98,86,79,79,14860,2147756653,2147429238,2148009362,2147875940,2147642139,2147053568,2148262272,2147197997,3511,4,13,47215
1369821590,5812,985.5900268554688000,49.8928794860839840,676.5114135742188000,4.0828628540039060,53.7683181762695300,52,99,85,78,80,14857,2147759286,2147423296,2148012086,2147876534,2147641362,2147058834,2148262619,2147197997,565,4,13,29655
1369825190,5808,983.2800292968750000,49.8817100524902340,677.0648193359375000,4.0645370483398440,53.7790489196777340,53,99,85,79,79,14795,2147756562,2147425636,2148011830,2147874331,2147641243,2147052041,2148259428,2147196864,49,4,13,43556
1369828790,5807,984.5999755859375000,50.0536499023437500,677.4520263671875000,4.0517158508300780,53.7560882568359400,53,99,82,79,80,14796,2147756955,2147427218,2148012772,2147876754,2147639488,2147051803,2148263661,2147196699,12,4,13,52978
1369832390,5809,988.5700073242188000,50.0496711730957000,677.4407958984375000,4.0520839691162110,53.7607307434082000,53,103,85,79,79,14793,2147757083,2147423186,2148011721,2147876507,2147642386,2147051328,2148259346,2147197869,41,4,13,21277
1369835990,5809,1002.9099731445312000,50.0382995605468750,675.3001708984375000,4.1229529380798340,53.7341499328613300,53,100,85,79,80,14795,2147756690,2147425572,2148010148,2147871963,2147640667,2147050496,2148257170,2147197750,3586,4,13,54731
1369839590,5805,995.7800292968750000,49.1810417175293000,675.4982299804688000,4.1163978576660160,53.8550109863281250,53,97,86,79,81,14797,2147756196,2147425627,2148008914,2147875264,2147642605,2147046171,2148258724,2147197293,521,4,13,2792
1369843190,5808,1001.5200195312500000,49.7042083740234400,674.8911743164062000,4.1364879608154300,53.7697296142578100,52,100,86,82,79,14793,2147757284,2147424100,2148009115,2147875840,2147642678,2147049499,2148263698,2147200539,3202,4,13,57286
1369846790,5807,1002.9400024414062000,49.1880493164062500,673.6621704101562000,4.1771430969238280,53.8294105529785160,52,98,86,79,79,14792,2147752713,2147427364,2148010413,2147875264,2147640566,2147053659,2148258496,2147199725,311,4,13,20488
1369850390,5809,990.6400146484375000,48.6675605773925800,674.1817016601562000,4.1599621772766110,53.9103584289550800,52,98,87,79,80,14795,2147754541,2147429248,2148007643,2147876004,2147642825,2147045888,2148264338,2147196059,3116,4,13,51759
1369853990,5810,996.4600219726562000,49.0240211486816400,674.3765869140625000,4.1535148620605470,53.8616905212402340,52,97,87,79,79,14791,2147755849,2147425536,2148010916,2147872164,2147642313,2147045732,2148260891,2147197641,3439,4,13,26987
1369857590,5808,995.0499877929688000,48.8583602905273440,674.3488159179688000,4.1544342041015625,53.8860893249511700,53,99,83,79,79,14792,2147756873,2147427666,2148008786,2147876388,2147643392,2147048539,2148260690,2147195648,3497,4,13,44907
1369858255,5811,991.7299804687500000,48.9072914123535160,674.8801269531250000,4.1368541717529300,53.8862991333007800,51,99,86,79,79,14850,2147758098,2147426048,2148011117,2147875017,2147640841,2147050898,2148258651,2147198747,3227,4,13,31259
